GW2821 Weather Reports


time (UTC)temp
F
wind
direction
speed
knots
gust
knots
rain 1hr
in
rain 24hr
in
rain mn
in
humidity
%
barometer
mb
20260502214135 66 17 5.2 7.0 0.00 0.00 0.00 32
20260502204542 63 300 3.5 5.2 0.00 0.00 0.00 36
20260502200802 64 55 5.2 6.1 0.00 0.00 0.00 36
20260502195823 63 337 5.2 6.1 0.00 0.00 0.00 37
20260502194521 63 347 6.1 7.0 0.00 0.00 0.00 37
20260502193528 64 26 4.3 6.1 0.00 0.00 0.00 38
20260502192447 64 43 3.5 6.1 0.00 0.00 0.00 37
20260502191456 64 87 1.7 1.7 0.00 0.00 0.00 36
20260502190432 63 74 1.7 2.6 0.00 0.00 0.00 35
20260502185703 62 318 4.3 6.1 0.00 0.00 0.00 38
20260502184225 63 283 4.3 6.1 0.00 0.00 0.00 38
20260502183217 61 325 2.6 2.6 0.00 0.00 0.00 41
20260502182136 61 45 2.6 2.6 0.00 0.00 0.00 44
20260502181112 61 268 5.2 6.1 0.00 0.00 0.00 40
20260502180120 60 30 3.5 4.3 0.00 0.00 0.00 40
20260502170109 58 109 0.9 0.9 0.00 0.00 0.00 43
20260502163943 55 108 0.9 0.9 0.00 0.00 0.00 46
20260502162935 54 101 0.9 1.7 0.00 0.00 0.00 51
20260502161929 53 94 1.7 2.6 0.00 0.00 0.00 51
20260502160920 52 47 2.6 2.6 0.00 0.00 0.00 48
20260502151809 49 344 0.9 0.9 0.00 0.00 0.00 63
20260502150952 49 64 1.7 2.6 0.00 0.00 0.00 58
20260502130152 44 108 1.7 1.7 0.00 0.00 0.00 51
20260502123220 44 114 1.7 1.7 0.00 0.00 0.00 49
20260502122216 43 110 2.6 2.6 0.00 0.00 0.00 51
20260502121201 44 97 1.7 2.6 0.00 0.00 0.00 48
20260502120152 43 130 2.6 2.6 0.00 0.00 0.00 50
20260502115150 44 100 0.9 1.7 0.00 0.00 0.00 50
20260502114122 43 108 1.7 1.7 0.00 0.00 0.00 52
20260502113112 43 107 1.7 1.7 0.00 0.00 0.00 51
20260502112104 45 110 0.9 1.7 0.00 0.00 0.00 48
20260502111056 44 105 2.6 2.6 0.00 0.00 0.00 50
20260502110105 43 126 0.0 0.9 0.00 0.00 0.00 50
20260502105059 45 127 0.9 0.9 0.00 0.00 0.00 48
20260502104104 45 97 4.3 5.2 0.00 0.00 0.00 48
20260502103059 45 102 4.3 5.2 0.00 0.00 0.00 47
20260502102104 44 99 4.3 5.2 0.00 0.00 0.00 48
20260502101119 45 94 4.3 5.2 0.00 0.00 0.00 47
20260502100104 45 109 5.2 5.2 0.00 0.00 0.00 48
20260502091056 47 106 3.5 4.3 0.00 0.00 0.00 46
20260502090124 48 103 2.6 2.6 0.00 0.00 0.00 45
20260502080105 48 108 3.5 4.3 0.00 0.00 0.00 44
20260502071118 48 91 2.6 2.6 0.00 0.00 0.00 45
20260502070049 49 114 2.6 2.6 0.00 0.00 0.00 44
20260502065024 49 91 5.2 5.2 0.00 0.00 0.00 43
20260502064032 48 127 4.3 6.1 0.00 0.00 0.00 45
20260502063030 50 81 2.6 2.6 0.00 0.00 0.00 41
20260502062153 48 117 5.2 5.2 0.00 0.00 0.00 45
20260502061015 48 60 7.0 7.0 0.00 0.00 0.00 46
20260502060111 47 66 6.1 8.7 0.00 0.00 0.00 48
20260502054904 53 102 3.5 4.3 0.00 0.00 0.00 37
20260502053840 55 101 4.3 5.2 0.00 0.00 0.00 36
20260502052832 55 88 8.7 8.7 0.00 0.00 0.00 34
20260502051828 55 94 7.8 9.6 0.00 0.00 0.00 34
20260502050917 53 101 7.0 7.0 0.00 0.00 0.00 37
20260502045928 52 104 5.2 6.1 0.00 0.00 0.00 39
20260502044631 53 115 5.2 6.1 0.00 0.00 0.00 38
20260502043642 55 111 6.1 7.0 0.00 0.00 0.00 37
20260502042552 55 91 7.8 7.8 0.00 0.00 0.00 37
20260502041601 55 94 5.2 6.1 0.00 0.00 0.00 38
20260502040558 54 98 6.1 7.0 0.00 0.00 0.00 41
20260502035621 54 94 5.2 6.1 0.00 0.00 0.00 41
20260502034612 55 97 5.2 6.1 0.00 0.00 0.00 40
20260502033601 55 103 6.1 7.0 0.00 0.00 0.00 40
20260502032553 56 98 5.2 7.0 0.00 0.00 0.00 39
20260502031621 57 110 5.2 6.1 0.00 0.00 0.00 39
20260502030555 58 80 6.1 7.8 0.00 0.00 0.00 36
20260502025642 59 113 4.3 5.2 0.00 0.00 0.00 35
20260502024615 60 107 4.3 5.2 0.00 0.00 0.00 33
20260502023528 65 106 4.3 4.3 0.00 0.00 0.00 26
20260502022521 66 110 2.6 2.6 0.00 0.00 0.00 24
20260502021724 67 116 0.9 0.9 0.00 0.00 0.00 19
20260502020537 68 122 0.9 1.7 0.00 0.00 0.00 24
20260502013859 71 126 1.7 1.7 0.00 0.00 0.00 20
20260502012939 71 128 0.9 0.9 0.00 0.00 0.00 20
20260502011826 71 154 1.7 1.7 0.00 0.00 0.00 21
20260502010904 72 116 1.7 1.7 0.00 0.00 0.00 20
20260502005145 72 178 4.3 5.2 0.00 0.00 0.00 22
20260502003841 73 128 1.7 1.7 0.00 0.00 0.00 22
20260502002212 71 194 2.6 2.6 0.00 0.00 0.00 23
20260502001040 73 124 1.7 1.7 0.00 0.00 0.00 25
20260501234537 71 71 1.7 1.7 0.00 0.00 0.00 24
20260501233321 71 198 4.3 5.2 0.00 0.00 0.00 25
20260501232345 71 177 5.2 6.1 0.00 0.00 0.00 25
20260501231025 70 156 1.7 1.7 0.00 0.00 0.00 24
20260501230040 71 337 1.7 1.7 0.00 0.00 0.00 26
20260501224952 70 67 2.6 4.3 0.00 0.00 0.00 25
20260501223930 69 13 1.7 1.7 0.00 0.00 0.00 27
20260501222923 71 126 0.0 0.9 0.00 0.00 0.00 26
20260501221929 70 178 5.2 7.0 0.00 0.00 0.00 25
20260501220905 71 101 0.0 1.7 0.00 0.00 0.00 25
20260501215938 70 113 2.6 2.6 0.00 0.00 0.00 25